Location: Amsterdam
(30.7274°N, 84.4357°W)
Time: 13:13:28
(UTC+00:00)

Vanguard 2 Rocket - Pass Details

Date: 23 February 2026
Orbit: 553 x 3286 km, 32.9° (Epoch: 13 March)

Event Time Altitude Azimuth Distance (km) Brightness Sun altitude
Rises 00:34:09 0° 279° (W) 5,408 12.6 -14.2°
Reaches altitude 10° 00:40:23 10° 259° (WSW) 3,729 11.4 -15.6°
Maximum altitude 00:44:35 14° 231° (SW) 2,953 10.2 -16.5°
Drops below altitude 10° 00:47:59 10° 202° (SSW) 2,859 9.7 -17.2°
Sets 00:51:38 0° 175° (S) 3,404 9.8 -18.0°
